EDT,Max TemperatureF,Mean TemperatureF,Min TemperatureF,Max Dew PointF,MeanDew PointF,Min DewpointF,Max Humidity, Mean Humidity, Min Humidity, Max Sea Level PressureIn, Mean Sea Level PressureIn, Min Sea Level PressureIn, Max VisibilityMiles, Mean VisibilityMiles, Min VisibilityMiles, Max Wind SpeedMPH, Mean Wind SpeedMPH, Max Gust SpeedMPH,PrecipitationIn, CloudCover, Events, WindDirDegrees
2011-10-1,,,,,,,,,,,,,,,,,,,,,,
2011-10-2,,,,,,,,,,,,,,,,,,,,,,
2011-10-3,,,,,,,,,,,,,,,,,,,,,,
2011-10-4,,,,,,,,,,,,,,,,,,,,,,
2011-10-5,,,,,,,,,,,,,,,,,,,,,,
2011-10-6,,,,,,,,,,,,,,,,,,,,,,
2011-10-7,,,,,,,,,,,,,,,,,,,0.00,,,-1
2011-10-8,73,58,44,54,47,43,93,77,41,30.56,30.51,30.46,10,6,0,8,1,,0.00,3,,109
2011-10-9,,,,,,,,,,,,,,,,,,,,,,
2011-10-10,80,66,53,61,55,50,94,72,37,30.23,30.19,30.18,10,9,2,6,2,,0.00,0,,360
2011-10-11,55,54,53,54,52,52,94,93,88,30.18,30.17,30.16,10,10,7,0,0,,0.00,0,,-1
2011-10-12,64,64,64,63,61,61,94,89,88,29.91,29.86,29.82,10,7,3,14,8,18,0.07,8,,97
2011-10-13,73,68,62,68,63,61,94,92,83,29.81,29.70,29.57,10,6,1,12,2,24,1.83,8,Thunderstorm,6
2011-10-14,71,66,60,63,57,37,94,78,31,29.57,29.51,29.48,10,9,2,21,5,28,0.11,4,Thunderstorm,206
2011-10-15,71,58,46,43,38,30,87,51,22,29.82,29.76,29.73,10,10,10,17,7,29,0.00,1,,221
2011-10-16,71,56,41,45,40,36,87,60,33,30.06,29.95,29.79,10,10,10,17,5,26,0.00,0,,187
2011-10-17,69,63,57,54,46,39,82,56,42,29.89,29.81,29.70,10,10,10,13,7,16,0.00,2,,18
2011-10-18,73,60,48,55,49,45,93,69,38,29.88,29.83,29.78,10,10,5,9,1,,0.00,2,,115
2011-10-19,66,63,60,63,58,54,94,84,68,29.75,29.52,29.29,10,8,2,12,3,18,0.00,8,,49
2011-10-20,64,58,51,63,44,36,94,63,44,29.73,29.50,29.27,10,10,10,21,11,28,0.00,4,,201
2011-10-21,60,50,39,43,39,36,93,66,45,30.09,29.98,29.83,10,10,10,14,4,17,0.00,4,,257
2011-10-22,60,50,39,43,39,36,93,69,42,30.18,30.13,30.09,10,10,6,8,3,,0.00,4,,207
2011-10-23,64,50,35,46,40,32,93,75,48,30.19,30.13,30.08,10,7,0,9,1,,0.00,1,,176
2011-10-24,68,54,41,52,44,37,93,73,46,30.13,30.07,29.99,10,8,2,7,2,,0.00,3,,201
2011-10-25,68,54,39,45,40,36,93,62,30,30.23,30.16,30.09,10,10,5,14,6,18,0.00,0,,289
2011-10-26,69,56,44,57,47,39,94,72,46,30.07,29.91,29.80,10,10,2,8,3,,0.00,2,,202
2011-10-27,69,62,55,57,54,52,94,84,60,29.77,29.68,29.59,10,10,3,9,1,,0.00,6,,174
2011-10-28,48,42,37,39,29,25,76,57,40,30.25,30.19,30.06,10,10,10,13,7,17,0.00,3,,32
2011-10-29,39,37,35,36,34,32,93,89,87,30.18,30.03,29.94,10,7,2,21,11,28,0.00,8,,349
2011-10-30,53,40,28,34,29,25,93,68,35,30.33,30.25,30.10,10,10,8,12,4,16,0.00,0,,346
2011-10-31,55,42,28,37,30,25,93,71,38,30.38,30.33,30.25,10,9,1,13,2,,0.00,0,,141